Location: Ottawa
(45.4167°N, 75.7000°W)
Time: 03:07:05
(UTC-04:00)

Tiangong 1 - Pass Details

Date: 16 October 2017
Orbit: 293 x 320 km, 42.8° (Epoch: 19 October)

Event Time Altitude Azimuth Distance (km) Brightness Sun altitude
Rises 18:51:03 0° 270° (W) 2,049 7.2 -7.0°
Reaches altitude 10° 18:53:24 10° 250° (WSW) 1,212 5.1 -7.5°
Maximum altitude 18:55:22 18° 204° (SSW) 864 3.2 -7.8°
Drops below altitude 10° 18:57:18 10° 157° (SSE) 1,198 3.4 -8.1°
Enters shadow 18:59:06 - 140° (SE) 1,825 4.1 -8.5°
